Home   Weather   Ho Chi Minh   Past weeks

Flag for Vietnam Past Weather in Ho Chi Minh, Vietnam — Yesterday and Last 2 Weeks

Now
91 °F

Scattered clouds.


Feels Like: 103 °F
Forecast: 78 / 94 °F
Wind: 8 mph from West

Location: Ho Chi Minh

Current Time: Aug 31, 2016 at 3:13:14 PM

Latest Report: Aug 31, 2016 at 2:30 PM


Visibility: N/A

Pressure: 29.77 "Hg

Humidity: 59%

Dew Point: 75 °F

Location of Ho Chi MinhLocation

Past Weather in Ho Chi Minh — Graph

°F

Ho Chi Minh Temperature Yesterday

Maximum temperature yesterday: 91 °F (at 11:00 AM)
Minimum temperature yesterday: 77 °F (at 4:00 AM)
Average temperature yesterday: 82 °F

High & Low Weather Summary for the Past Weeks

 TemperatureHumidityPressure
High95 °F (Aug 26, 3:00 PM)100% (Aug 21, 5:00 AM)29.89 "Hg (Aug 21, 5:00 AM)
Low73 °F (Aug 26, 6:00 PM)49% (Aug 26, 2:30 PM)29.56 "Hg (Aug 23, 2:00 PM)
Average84 °F81%29.71 "Hg
* Reported Aug 16 2:00 PM — Aug 31 2:00 PM, Ho Chi Minh, Weather by CustomWeather, © 2016

Note: Actual official high and low records may vary slightly from our data, if they occured in-between our weather recording intervals... More about our weather records

Advertising

Ho Chi Minh Weather History for the Previous 24 Hours

Scroll right to see more
 ConditionsComfort  
Time TempWeatherWind HumidityBarometerVisibility
2:00 PM
Wed, Aug 31
93 °FPartly sunny.8 mph53%29.77 "HgN/A
1:30 PM91 °FPartly sunny.8 mph59%29.77 "HgN/A
1:00 PM91 °FPartly sunny.7 mph52%29.80 "HgN/A
12:30 PM91 °FPartly sunny.8 mph56%29.80 "HgN/A
12:00 PM91 °FPartly sunny.9 mph56%29.83 "HgN/A
11:30 AM91 °FScattered clouds.8 mph59%29.83 "HgN/A
11:00 AM90 °FScattered clouds.8 mph63%29.86 "HgN/A
10:30 AM90 °FScattered clouds.5 mph63%29.86 "HgN/A
10:00 AM88 °FScattered clouds.5 mph66%29.86 "HgN/A
9:00 AM88 °FWarm.N/A70%29.89 "HgN/A
8:30 AM86 °FScattered clouds.7 mph70%29.89 "HgN/A
8:00 AM84 °FPassing clouds.2 mph79%29.86 "Hg5 mi
7:30 AM84 °FPassing clouds.1 mph79%29.86 "Hg5 mi
7:00 AM82 °FPassing clouds.1 mph84%29.83 "Hg5 mi
6:30 AM81 °FPassing clouds.1 mph89%29.83 "Hg5 mi
6:00 AM79 °FPassing clouds.No wind94%29.83 "Hg5 mi
5:30 AM79 °FPassing clouds.1 mph94%29.83 "Hg5 mi
5:00 AM79 °FPassing clouds.No wind94%29.83 "Hg6 mi
4:30 AM79 °FPassing clouds.1 mph94%29.83 "Hg6 mi
4:00 AM79 °FPassing clouds.1 mph94%29.83 "Hg6 mi
3:30 AM79 °FPassing clouds.1 mph94%29.83 "Hg6 mi
3:00 AM79 °FPassing clouds.2 mph94%29.83 "Hg6 mi
2:30 AM79 °FPassing clouds.3 mph94%29.83 "Hg6 mi
2:00 AM79 °FClear.No wind94%29.83 "Hg4 mi
1:30 AM79 °FPassing clouds.2 mph94%29.83 "Hg4 mi
1:00 AM79 °FPassing clouds.No wind94%29.83 "Hg4 mi
12:30 AM79 °FPassing clouds.2 mph94%29.86 "Hg4 mi
12:00 AM79 °FPassing clouds.1 mph94%29.86 "Hg4 mi
11:30 PM
Tue, Aug 30
79 °FPassing clouds.No wind94%29.86 "Hg4 mi
11:00 PM79 °FPassing clouds.2 mph94%29.86 "Hg4 mi
10:30 PM79 °FPassing clouds.No wind94%29.86 "Hg5 mi
10:00 PM79 °FPassing clouds.1 mph94%29.86 "Hg5 mi
9:30 PM79 °FPassing clouds.2 mph94%29.86 "Hg5 mi
9:00 PM79 °FPassing clouds.3 mph94%29.83 "Hg5 mi
8:30 PM81 °FPassing clouds.3 mph89%29.83 "Hg5 mi
8:00 PM81 °FPassing clouds.2 mph89%29.80 "Hg5 mi
7:30 PM79 °FPassing clouds.2 mph94%29.80 "Hg5 mi
7:00 PM79 °FPassing clouds.2 mph94%29.80 "Hg4 mi
6:30 PM79 °FLight rain. Passing clouds.2 mph89%29.77 "Hg5 mi
6:00 PM79 °FLight rain. Broken clouds.3 mph94%29.77 "Hg5 mi
5:00 PM79 °FThunderstorms. Broken clouds.5 mph89%29.74 "HgN/A
4:30 PM79 °FThunderstorms. Broken clouds.14 mph89%29.77 "Hg4 mi
4:00 PM79 °FStrong thunderstorms. Broken clouds.9 mph89%29.77 "Hg2 mi
3:30 PM81 °FLots of rain. Broken clouds.16 mph84%29.77 "Hg1 mi
3:00 PM90 °FScattered clouds.7 mph63%29.74 "HgN/A
Weather by CustomWeather, © 2016

See weather overviewHow to use our weather pages